C/2010 U3 ( Boattini )

Japanese version
Home page
Updated on August 6, 2019

---------------------------------------------------------------------

* Profile

Discovery Date October 31, 2010
Magnitude 19.4 mag
Discoverer A. Boattini (Mt. Lemmon)

* Pictures

* Orbital Elements

Epoch 2019 Mar. 18.0 TT = JDT 2458560.5
T 2019 Feb. 26.62367 TT                                 MPCW
q   8.4455185            (2000.0)            P               Q
z  +0.0001960      Peri.   88.08644     -0.36204877     -0.74305622
 +/-0.0000003      Node    43.06727     +0.07255767     -0.62443409
e   0.9983446      Incl.   55.51175     +0.92933098     -0.24072706
From 1813 observations 2005 Nov. 5-2019 May 12, mean residual 0".6.

* Finding Charts

* Magnitudes Graph

        m1 = 7.5 + 5 log d + 5.0 log r

---------------------------------------------------------------------

The orbital elements are published on M.P.E.C. 2019-J142.
The charts are made with StellaNavigator Ver.8 (AstroArts).
The magnitudes graphs are made with Comet for Windows.

---------------------------------------------------------------------

Copyright(C) Seiichi Yoshida (comet@aerith.net). All rights reserved.